{"data":{"norad_id":57639,"intl_designator":"2023-122H","name":"STARLINK-30326","alt_names":[],"object_type":"PAYLOAD","status":"ACTIVE","operator":null,"country":"US","launch_date":"2023-08-17","launch_site_code":"AFETR","launch_vehicle":null,"mission":null,"orbit_class":"UNKNOWN","rcs_meters":null,"size_class":null,"mass_kg":null,"dimensions":null,"purposes":["comms"],"wikipedia_slug":null,"has_3d_model":false,"image_url":null,"decayed_at":null,"tle_current":{"epoch":"2026-05-25T00:57:29.911392Z","epoch_age_seconds":65565,"freshness":"FRESH","line1":"1 57639U 23122H   26145.03992953  .00001669  00000+0  70195-4 0  9995","line2":"2 57639  43.0067  21.3149 0001714 255.0811 104.9850 15.27574019153880","mean_motion":15.27574019,"eccentricity":0.0001714,"inclination_deg":43.0067,"raan_deg":21.3149,"arg_perigee_deg":255.0811,"mean_anomaly_deg":104.985,"bstar":7.0195e-5,"rev_number":15388,"period_min":94.267117801772,"perigee_km":481.89099499722,"apogee_km":484.24301573026,"semimajor_km":6861.2040053637,"source":"CELESTRAK","updated_at":"2026-05-25T13:38:18.363604Z"}}}